36P/Whipple (2003)

Japanese version
Home page
Total 6,336 html files since Dec. 4, 1995
Updated on April 6, 2004

---------------------------------------------------------------------

* Profile

* Orbital Elements

   The following improved orbital elements by Kenji Muraoka, are
  from 220 observations  1933 to 2000, including 9 Planets, Moon
  and 5 minor planets perturbations and non-gravitational effect
  of style II.     The mean residual is +/- 0.91 arc seconds.

      Epoch  =  2003 July 20.0  TT       JDT = 2452840.5
          T  =  2003 July  6.65184       +/- 0.00065 (m.e.) TT
       Peri. =  202.21301                +/- 0.00016
       Node  =  182.39909                +/- 0.00010   (2000.0)
       Incl. =    9.93291                +/- 0.00002
          q  =    3.0882616              +/- 0.0000006 AU
          e  =    0.2590415              +/- 0.0000001
          a  =    4.1679279              +/- 0.0000003 AU
          n  =    0.11583073             +/- 0.00000001
          P  =    8.509                  +/- 0.0000008  years
         A1  =   +0.343                  +/- 0.017
         A2  =   -0.05246                +/- 0.00045

* Finding Charts

* Magnitudes Graph

        m1 = 8.5 + 5 log d + 15.0 log r

---------------------------------------------------------------------

The orbital elements are calculated by Kenji Muraoka.
The charts are made with StellaNavigator Ver.2.0 for Windows (AstroArts / ASCII).
The magnitudes graphs are made with Comet for Windows.

---------------------------------------------------------------------

Copyright(C) 1995-2008 Seiichi Yoshida (comet@aerith.net). All rights reserved.